View from above orbital plane
|
View from above satellite
|
Ground track
|
The orbit data is extracted from the following two-line orbital elements,
1 04394U 70037B 21059.57980816 .00001595 00000-0 51874-4 0 9997
2 04394 81.2405 223.9407 0038252 176.1610 183.9928 15.30505107771935
Epoch (UTC): | 28 February 2021 13:54:55 |
Eccentricity: | 0.0038252 |
inclination: | 81.2405° |
perigee height: | 448 km |
apogee height: | 500 km |
right ascension of ascending node: | 223.9407° |
argument of perigee: | 176.1610° |
revolutions per day: | 15.30505107 |
mean anomaly at epoch: | 183.9928° |
orbit number at epoch: | 77193 |
The dashed part of the orbit path shows where the satellite is in the earth's shadow,
|
|